Powrót do katalogu

BREEZE-M DEB

TANK

AktywnyHEO
NORAD 40884·DEBRIS·🇷🇺 Russia

Wystrzelony Aug 28, 2015 z Baikonur Cosmodrome

Loading…

Następne Przeloty (najbliższe 24 godziny)

TLE

ŚwieżeSource: Space-Track

Epoka: Sep 13, 2026, 21:41 UTC

1 40884U 15042C   26256.90410551  .00000506  00000-0  25485-3 0  9990
2 40884  50.7797 309.8862 5113938  94.3364 323.1090  5.36462558213497

Śledź BREEZE-M DEB w czasie rzeczywistym z AllMySat

Download on the App Store